TimeEDT,TemperatureF,Dew PointF,Humidity,Sea Level PressureIn,VisibilityMPH,Wind Direction,Wind SpeedMPH,Gust SpeedMPH,PrecipitationIn,Events,Conditions,WindDirDegrees,DateUTC
12:53 AM,73.9,72.0,93,29.98,10.0,SE,4.6,-,N/A,,Clear,140,2013-03-23 04:53:00
1:53 AM,75.0,72.0,90,29.96,10.0,SE,6.9,-,N/A,,Clear,140,2013-03-23 05:53:00
2:53 AM,75.0,72.0,90,29.94,10.0,SSE,6.9,-,N/A,,Clear,150,2013-03-23 06:53:00
3:53 AM,75.0,73.0,94,29.92,10.0,SSE,6.9,-,N/A,,Clear,160,2013-03-23 07:53:00
4:53 AM,73.9,72.0,93,29.91,10.0,SSE,4.6,-,N/A,,Clear,160,2013-03-23 08:53:00
5:53 AM,73.9,72.0,93,29.92,10.0,SSE,6.9,-,N/A,,Clear,160,2013-03-23 09:53:00
6:53 AM,73.9,72.0,93,29.94,10.0,SSE,6.9,-,N/A,,Partly Cloudy,160,2013-03-23 10:53:00
7:53 AM,75.0,71.1,87,29.94,10.0,SSE,10.4,-,N/A,,Scattered Clouds,160,2013-03-23 11:53:00
8:53 AM,75.9,73.0,91,29.96,10.0,South,9.2,-,N/A,,Partly Cloudy,170,2013-03-23 12:53:00
9:53 AM,78.1,73.0,84,29.97,10.0,South,10.4,-,N/A,,Scattered Clouds,170,2013-03-23 13:53:00
10:53 AM,79.0,72.0,79,29.96,10.0,SSE,13.8,-,N/A,,Partly Cloudy,160,2013-03-23 14:53:00
11:53 AM,80.1,72.0,76,29.94,10.0,South,15.0,-,N/A,,Partly Cloudy,170,2013-03-23 15:53:00
12:53 PM,80.1,72.0,76,29.92,10.0,South,13.8,-,N/A,,Partly Cloudy,170,2013-03-23 16:53:00
1:53 PM,81.0,71.1,72,29.90,10.0,South,12.7,-,N/A,,Partly Cloudy,170,2013-03-23 17:53:00
2:53 PM,82.0,71.1,69,29.87,10.0,SSE,12.7,-,N/A,,Partly Cloudy,160,2013-03-23 18:53:00
3:53 PM,81.0,70.0,69,29.85,10.0,SSE,11.5,-,N/A,,Partly Cloudy,150,2013-03-23 19:53:00
4:53 PM,82.0,69.1,65,29.83,10.0,SE,9.2,-,N/A,,Clear,140,2013-03-23 20:53:00
5:53 PM,81.0,69.1,67,29.83,10.0,SE,6.9,-,N/A,,Clear,130,2013-03-23 21:53:00
6:53 PM,79.0,71.1,77,29.84,10.0,SE,6.9,-,N/A,,Clear,130,2013-03-23 22:53:00
7:53 PM,75.9,71.1,85,29.85,10.0,ESE,4.6,-,N/A,,Clear,120,2013-03-23 23:53:00
8:53 PM,75.9,72.0,87,29.86,10.0,ESE,4.6,-,N/A,,Clear,120,2013-03-24 00:53:00
9:53 PM,75.0,72.0,90,29.88,10.0,ESE,5.8,-,N/A,,Clear,120,2013-03-24 01:53:00
10:53 PM,75.0,73.0,94,29.89,10.0,SE,5.8,-,N/A,,Clear,130,2013-03-24 02:53:00
11:53 PM,75.9,72.0,87,29.89,10.0,SSW,5.8,-,N/A,,Clear,200,2013-03-24 03:53:00